Regional Weather Roundup
Issued by NWS Charleston, WV

Home | Current Version | Previous Version | Graphics & Text | Print | Product List | Glossary On
Versions: 1 2 3 4 5 6 7 8 9 10 11 12 13 14 15 16 17 18 19 20 21 22 23 24 25 26 27 28 29 30 31 32 33 34 35 36 37 38 39 40 41 42 43 44 45 46 47 48 49 50
000
ASUS41 KRLX 221410
RWRRLX
West Virginia Regional Weather Roundup
National Weather Service Charleston WV
1000 AM EDT FRI MAY 22 2015

Note: "fair" indicates few or no clouds below 12,000 feet with no
significant weather and/or obstructions to visibility.

WVZ003-221500-
Northern Panhandle of West Virginia

CITY           SKY/WX    TMP DP  RH WIND       PRES   REMARKS
WHEELING       SUNNY     55  45  67 S8        30.14R
$$

WVZ009-221500-
Northwest West Virginia

CITY           SKY/WX    TMP DP  RH WIND       PRES   REMARKS
PARKERSBURG    SUNNY     57  44  62 SW8G18    30.22S
$$

WVZ006-221500-
Western West Virginia

CITY           SKY/WX    TMP DP  RH WIND       PRES   REMARKS
HUNTINGTON     SUNNY     56  48  74 S8        30.24R
$$

WVZ015-221500-
West Central West Virginia

CITY           SKY/WX    TMP DP  RH WIND       PRES   REMARKS
CHARLESTON     MOSUNNY   55  47  74 SW9       30.24S
$$

WVZ022-031-221500-
North Central West Virginia

CITY           SKY/WX    TMP DP  RH WIND       PRES   REMARKS
CLARKSBURG     SUNNY     54  47  77 SW12      30.20R
MORGANTOWN     MOSUNNY   55  42  61 VRB7      30.18R
$$

WVZ025-035-042-045-221500-
Southern West Virginia

CITY           SKY/WX    TMP DP  RH WIND       PRES   REMARKS
BECKLEY        SUNNY     51  43  74 NW13      30.26R
LOGAN            N/A     54  48  82 CALM      30.23S
BLUEFIELD      CLOUDY    50  40  68 NW7       30.27R
LEWISBURG      PTSUNNY   52  40  64 W5        30.24R
$$

WVZ047-221500-
Northern Mountains of West Virginia

CITY           SKY/WX    TMP DP  RH WIND       PRES   REMARKS
ELKINS         MOSUNNY   54  42  64 W9G17     30.22R
$$

WVZ052-221500-
Eastern Panhandle of West Virginia

CITY           SKY/WX    TMP DP  RH WIND       PRES   REMARKS
MARTINSBURG    SUNNY     61  43  51 W8        30.11R
PETERSBURG     SUNNY     60  41  48 W5        30.17R
$$



USA.gov is the U.S. government's official web portal to all federal, state and local government web resources and services.